Location: Unspecified
(43.4680°N, 87.1740°E)
Time: 14:13:20
(UTC+00:00)

Okean 2 - Pass Details

Date: 04 August 2021
Orbit: 558 x 577 km, 82.5° (Epoch: 18 September)

Event Time Altitude Azimuth Distance (km) Brightness Sun altitude
Rises 18:48:15 0° 0° (N) 2,801 8.1 -29.1°
Reaches altitude 10° 18:50:38 10° 10° (N) 1,896 7.0 -29.0°
Enters shadow 18:53:36 30° 51° (NE) 1,042 5.0 -28.9°
